FENGYUN 1C DEB, 36255

Orbit data source: Space-Track

FENGYUN 1C DEB, 36255 is space debris in SSO originally from a launch on Mon, 10 May 1999 UTC launched from the Taiyaun Space Center, China (TSC). Fengyun 1C debris stems from the Chinese weather satellite Fengyun-1C, which was intentionally destroyed by a Chinese anti-satellite missile in 2007. This event dramatically increased the amount of space debris, with thousands of trackable fragments posing hazards to satellites and human spaceflight. The Fengyun 1C debris cloud has become a focal point in discussions about space sustainability and the need for international regulations to prevent the creation of new debris.

Loading next visibility...
Identifier
36255, 1999-025DWG
Orbit
SSO
Country
Flag of CNCN / PRC
Related business
Manufacturer
Unknown
Mission
Spacecraft
Bus & Motor
Unknown
Mass
Unknown
Launch date (UTC)
1999-05-10 (27 years ago)
Launch vehicle
Unknown
Launch site
Taiyaun Space Center, China (TSC)
Object type
Payload
Rocket body
Debris
Shape & HBR
Unknown shape, 0.1 m
Radar Cross Section
Small (<0.1 m²)

Expand to show TLE details & history
Last TLE update: 6 days ago

TLE from 6 days ago
0 FENGYUN 1C DEB
1 36255U 99025DWG 26159.11253522  .00002318  00000-0  77398-3 0  9991
2 36255  99.4447 101.8172 0064423  11.6444   2.9029 14.37421909665581
Epoch: 2026-06-08T02:42Z
TLE epoch observation values (Epoch: 2026-06-08T02:42:03.043Z)
Latitude
14.35501°
Longitude
162.37361°
Altitude
723.236 km
Speed
7.519 km/s
True Right ascension
06h 37m 33s
True Declination
14° 16' 20"
Sunlit
Object was in daylight at epoch
Visualization orbit readout
Latitude
Unknown
Longitude
Unknown
Altitude
Unknown
Speed
Unknown
Apparent Right ascension
Unknown
Apparent Declination
Unknown
Sunlit
N/A
Visualization observer readout
Local Sidereal Time
07:52:13
Azimuth
Unknown
Elevation
Unknown
Doppler factor
Unknown
Orbital elements
Apogee altitude
810.214 km
Perigee altitude
718.188 km
Semi-major axis
7,142.338 km
Eccentricity
0.00644
Inclination
99.4447°
RAAN
101.8172°
Arg. of periapsis
11.6444°
True anomaly
2.94059°
Mean anomaly
2.9029°
Eccentric anomaly
2.92171°
Mean motion
3.59569 °/min
Orbital period
100.12 mins
BSTAR
0.00077398
Loading maneuver chart data...
Computing Atmospheric mass density...

Documentation

Showing up to 5 results
|